TimeNZDT,TemperatureF,Dew PointF,Humidity,Sea Level PressureIn,VisibilityMPH,Wind Direction,Wind SpeedMPH,Gust SpeedMPH,PrecipitationIn,Events,Conditions,WindDirDegrees,DateUTC
12:00 AM,37.4,35.6,93,30.36,-9999.0,Calm,Calm,-,N/A,,Clear,0,2012-11-07 11:00:00
1:00 AM,35.6,33.8,93,30.36,-9999.0,Calm,Calm,-,N/A,,Clear,0,2012-11-07 12:00:00
2:00 AM,33.8,32.0,93,30.36,-9999.0,NNW,1.2,-,N/A,,Clear,330,2012-11-07 13:00:00
3:00 AM,33.8,32.0,93,30.36,-9999.0,WSW,2.3,-,N/A,,Clear,240,2012-11-07 14:00:00
4:00 AM,32.0,32.0,100,30.36,6.2,SW,2.3,-,N/A,,Partly Cloudy,230,2012-11-07 15:00:00
5:00 AM,32.0,30.2,93,30.36,6.2,SW,3.5,-,N/A,Fog,Patches of Fog,230,2012-11-07 16:00:00
6:00 AM,28.4,28.4,100,30.36,6.2,Calm,Calm,-,N/A,Fog,Shallow Fog,0,2012-11-07 17:00:00
7:00 AM,30.2,30.2,100,30.36,6.2,Calm,Calm,-,N/A,Fog,Shallow Fog,0,2012-11-07 18:00:00
8:00 AM,39.2,39.2,100,30.36,6.2,NNE,1.2,-,N/A,Fog,Shallow Fog,30,2012-11-07 19:00:00
9:00 AM,48.2,42.8,82,30.36,-9999.0,NNE,8.1,-,N/A,,Clear,30,2012-11-07 20:00:00
10:00 AM,51.8,44.6,76,30.36,6.2,NE,12.7,-,N/A,,Partly Cloudy,50,2012-11-07 21:00:00
11:00 AM,53.6,44.6,72,30.36,6.2,East,13.8,-,N/A,,Partly Cloudy,80,2012-11-07 22:00:00
12:00 PM,55.4,44.6,67,30.33,6.2,East,12.7,-,N/A,,Partly Cloudy,80,2012-11-07 23:00:00
1:00 PM,57.2,44.6,63,30.33,6.2,ENE,13.8,-,N/A,,Partly Cloudy,70,2012-11-08 00:00:00
2:00 PM,57.2,44.6,63,30.30,6.2,ENE,13.8,-,N/A,,Unknown,70,2012-11-08 01:00:00
3:00 PM,57.2,44.6,63,30.27,-9999.0,ENE,15.0,-,N/A,,Clear,70,2012-11-08 02:00:00
4:00 PM,57.2,44.6,63,30.27,-9999.0,ENE,15.0,-,N/A,,Clear,70,2012-11-08 03:00:00
5:00 PM,57.2,44.6,63,30.24,-9999.0,ENE,16.1,-,N/A,,Clear,60,2012-11-08 04:00:00
6:00 PM,55.4,44.6,67,30.24,-9999.0,ENE,16.1,-,N/A,,Clear,70,2012-11-08 05:00:00
7:00 PM,53.6,44.6,72,30.24,-9999.0,ENE,17.3,-,N/A,,Clear,70,2012-11-08 06:00:00
8:00 PM,51.8,44.6,76,30.24,-9999.0,ENE,16.1,-,N/A,,Clear,70,2012-11-08 07:00:00
9:00 PM,50.0,44.6,82,30.27,-9999.0,ENE,13.8,-,N/A,,Clear,70,2012-11-08 08:00:00
10:00 PM,50.0,44.6,82,30.27,-9999.0,East,15.0,-,N/A,,Clear,80,2012-11-08 09:00:00
11:00 PM,48.2,42.8,82,30.27,-9999.0,ENE,12.7,-,N/A,,Clear,70,2012-11-08 10:00:00